Location: Cluj-Napoca
(46.7712°N, 23.6236°E)
Time: 08:13:58
(UTC+02:00)

BEESAT 3 - Visible Passes

Search period start: 05 December 2021 00:00
Search period end: 15 December 2021 00:00
Orbit: 477 x 511 km, 64.9° (Epoch: 04 December)

Date Brightness Start Highest point End Pass type
(mag) Time Alt. Az. Time Alt. Az. Time Alt. Az.
05 Dec ? 18:34:36 10° SSE 18:34:59 12° SSE 18:34:59 12° SSE visible
06 Dec ? 18:12:18 10° SSE 18:13:46 15° SE 18:13:46 15° SE visible
06 Dec ? 19:47:45 10° SW 19:48:20 14° SW 19:48:20 14° SW visible
07 Dec ? 17:50:05 10° SE 17:52:07 14° ESE 17:52:27 14° ESE visible
07 Dec ? 19:25:04 10° SW 19:27:01 28° WSW 19:27:01 28° WSW visible
08 Dec ? 17:27:57 10° SE 17:29:33 12° ESE 17:31:02 10° E visible
08 Dec ? 19:02:24 10° SW 19:05:36 58° WSW 19:05:36 58° WSW visible
09 Dec ? 18:39:44 10° SW 18:43:31 81° NW 18:44:05 62° NNE visible
10 Dec ? 18:17:04 10° SW 18:20:51 89° SE 18:22:28 33° NE visible
10 Dec ? 19:56:13 10° WNW 19:57:02 13° WNW 19:57:02 13° WNW visible
11 Dec ? 17:54:25 10° SSW 17:58:11 78° SE 18:00:47 20° NE visible
11 Dec ? 19:33:17 10° WNW 19:35:20 17° NW 19:35:20 17° NW visible
12 Dec ? 17:31:46 10° SSW 17:35:30 67° SE 17:39:01 12° NE visible
12 Dec ? 19:10:22 10° W 19:13:06 18° NW 19:13:34 18° NNW visible
13 Dec ? 17:09:07 10° SSW 17:12:49 58° ESE 17:16:37 10° NE visible
13 Dec ? 18:47:27 10° W 18:50:20 20° NW 18:51:44 17° N visible
14 Dec ? 18:24:33 10° W 18:27:34 22° NW 18:29:51 14° N visible
